#timestamp,LO_Frequency,Hit,StdDev 
1701262815.4,286047000.7,P
1701262835.2,286047000.9,P
1701262855.0,286047002.6,Y
1701262855.9,286047002.6,P
1701262875.8,286047000.4,N
1701262895.6,286047002.7,N
1701262915.5,286047000.0,N
1701262935.3,286047002.4,N
1701262955.1,286047000.6,N
1701262975.9,286047000.2,N
1701262995.7,286047000.9,N
1701263015.5,286047000.9,N
1701263035.4,286047000.5,N
1701263055.2,286047001.1,N
1701263075.1,286047001.2,N
1701263076.0,286047001.2,N
1701263095.8,286047000.5,N
1701263115.6,286047001.0,N
1701263135.5,286047001.1,N
1701263155.3,286047000.4,N
1701263175.1,286047001.2,N
1701263195.9,286046998.7,N
1701263215.7,286046999.3,N
1701263235.6,286046999.4,N
1701263255.4,286046999.1,N
1701263275.2,286046999.3,N
1701263295.1,286046999.3,N
1701263296.0,286046999.3,N
1701263315.8,286046998.2,N
1701263335.6,286046998.3,N
1701263355.5,286046998.5,N
1701263375.3,286046999.0,N
1701263395.2,286046998.7,N
1701263415.9,286046998.5,N
1701263435.7,286046999.0,N
1701263455.6,286046999.4,N
1701263475.4,286046997.2,N
1701263495.3,286046997.8,N
1701263515.1,286046997.4,N
1701263516.0,286046997.4,N
1701263535.8,286046996.9,N
1701263555.7,286046999.5,N
1701263575.5,286046997.1,N
1701263595.3,286046999.2,N
1701263615.2,286046998.9,N
1701263635.0,286046999.0,N
1701263635.9,286046999.0,N
1701263655.8,286046997.0,N
1701263675.6,286046999.5,N
1701263695.4,286046999.0,N
1701263715.3,286047001.2,N
1701263735.1,286046998.9,N
1701263755.8,286046999.6,N
1701263775.7,286046999.1,N
1701263795.5,286046998.9,N
1701263815.4,286046999.3,N
1701263835.2,286046998.8,N
1701263855.0,286046999.3,N
1701263855.9,286046999.3,N
1701263875.8,286046999.6,N
1701263895.6,286046999.2,N
1701263915.5,286046999.1,N
1701263935.3,286046999.3,N
1701263955.1,286046996.7,Y
1701263975.9,286046998.2,P
1701263995.7,286046998.4,P
1701264015.5,286046998.3,P
1701264035.4,286047001.1,Y
1701264055.2,286047000.1,P
1701264075.1,286046999.9,N
1701264076.0,286046999.9,N
1701264095.8,286047001.1,N
1701264115.6,286047000.5,N
1701264135.5,286047000.6,N
1701264155.3,286046998.1,N
1701264175.2,286047000.2,N
1701264195.9,286047002.5,N
1701264215.7,286047001.6,N
1701264235.6,286047001.7,N
1701264255.4,286047004.2,Y
1701264275.2,286047001.3,P
1701264295.1,286047002.0,P
1701264296.0,286047002.0,N
1701264315.8,286047001.4,N
1701264335.7,286047002.4,Y
1701264355.5,286046999.9,P
1701264375.3,286047002.2,N
1701264395.2,286047002.0,N
1701264415.0,286047002.8,Y
1701264415.9,286047002.8,P
1701264435.8,286047000.8,N
1701264455.6,286046998.6,N
1701264475.4,286046999.1,N
1701264495.3,286046999.3,N
1701264515.1,286046998.1,N
1701264535.8,286047000.7,N
1701264555.7,286047001.0,N
1701264575.5,286047001.1,N
1701264595.4,286047000.2,N
1701264615.2,286047000.5,N
1701264635.0,286046998.3,N
1701264635.9,286046998.3,N
1701264655.8,286046998.3,N
1701264675.6,286047001.0,N
1701264695.4,286046998.9,N
1701264715.3,286046999.2,N
1701264735.1,286046999.3,N
1701264755.9,286046999.4,N
1701264775.7,286046997.0,N
1701264795.5,286046999.4,N
1701264815.4,286046999.2,N
1701264835.2,286046999.0,N
1701264855.0,286046998.4,N
1701264855.9,286046998.4,N
1701264875.8,286046998.4,N
1701264895.6,286047001.1,N
1701264915.5,286046998.1,N
1701264935.3,286046998.1,N
1701264955.1,286046998.2,N
1701264975.9,286046999.0,N
1701264995.7,286046998.6,N
1701265015.6,286046998.5,N
1701265035.4,286047001.2,N
1701265055.2,286046998.7,N
1701265075.1,286046999.3,N
1701265076.0,286046999.3,N
1701265095.8,286046999.4,N
1701265115.7,286046998.8,N
1701265135.5,286046998.6,N
1701265155.3,286046996.8,Y
1701265175.2,286046996.6,P
1701265195.0,286046997.3,N
1701265195.9,286046997.3,N
1701265215.8,286046997.1,Y
1701265235.6,286046998.7,P
1701265255.4,286046998.2,P
1701265275.3,286046998.3,P
1701265295.1,286046998.9,N
1701265315.8,286046998.4,Y
1701265335.7,286047001.1,P
1701265355.5,286046998.5,N
1701265375.4,286046998.3,N
1701265395.2,286047000.8,N
1701265415.0,286046998.5,N
1701265415.9,286046998.5,N
1701265435.8,286047001.1,N
1701265455.6,286047001.1,N
1701265475.4,286047000.2,N
1701265495.3,286047002.0,N
1701265515.1,286047002.0,N
1701265535.9,286047002.2,N
1701265555.7,286047002.0,N
1701265575.5,286047000.2,N
1701265595.4,286046998.5,N
1701265615.2,286046999.6,N
1701265635.0,286046997.1,N
1701265635.9,286046997.1,N
1701265655.8,286046999.1,N
1701265675.6,286046996.7,N
1701265695.5,286046997.4,N
1701265715.3,286046997.6,N
1701265735.1,286046996.8,N
1701265755.9,286046997.6,N
1701265775.7,286046997.6,N
1701265795.5,286046995.0,N
1701265815.4,286046998.0,N
1701265835.2,286046995.4,N
1701265855.1,286046997.5,N
1701265856.0,286046997.5,N
1701265875.8,286046997.9,N
1701265895.6,286046997.8,N
1701265915.5,286046996.8,N
1701265935.3,286046997.5,N
1701265955.1,286046997.3,N
1701265975.9,286046995.6,N
1701265995.7,286046995.7,N
1701266015.6,286046993.3,Y
1701266035.4,286046997.6,P
1701266055.2,286046999.6,N
1701266075.1,286046996.5,P
1701266076.0,286046996.5,Y
1701266095.8,286047000.1,P
1701266115.7,286047000.4,N
1701266135.5,286046998.8,N
1701266155.3,286046996.9,Y
1701266175.2,286046998.3,P
1701266195.0,286047000.7,N
1701266195.9,286047000.7,N
1701266215.7,286047001.0,N
1701266235.6,286047001.2,N
1701266255.4,286046998.6,N
1701266275.3,286046998.5,N
1701266295.1,286047000.9,N
1701266315.8,286046999.4,N
1701266335.7,286046999.4,N
1701266355.5,286046998.7,N
1701266375.4,286046999.2,N
1701266395.2,286046997.7,N
